Overview Statistics Trail Chart Weather Telemetry Raw packets
 

This is the latest recevied weather packets stored in our database for station/object W0WFX-2. If no packets are shown the sender has not sent any weather packets the latest 10 day(s).

<< 82 83 84 85 86 87 88 >>
Time Temp. Humidity Pressure Rain* Wind** Luminosity Snow
1788039418 36.11° C 34% 1012.7 hPa 0 mm - 440 W/m² -
1788039113 36.67° C 34% 1012.9 hPa 0 mm - 453 W/m² -
1788038809 36.67° C 34% 1013 hPa 0 mm - 465 W/m² -
1788038509 36.67° C 34% 1013.2 hPa 0 mm - 479 W/m² -
1788038208 36.67° C 35% 1013 hPa 0 mm - 493 W/m² -
1788037903 36.67° C 35% 1013.1 hPa 0 mm - 505 W/m² -
1788037598 36.67° C 34% 1013.2 hPa 0 mm - 518 W/m² -
1788037293 36.67° C 35% 1013.4 hPa 0 mm - 533 W/m² -
1788036992 36.67° C 35% 1013.5 hPa 0 mm - 539 W/m² -
1788036689 36.67° C 35% 1013.4 hPa 0 mm - 539 W/m² -
1788036385 36.67° C 34% 1013.5 hPa 0 mm - 538 W/m² -
1788036085 36.11° C 34% 1013.6 hPa 0 mm - 540 W/m² -
1788035784 36.67° C 34% 1013.7 hPa 0 mm - 525 W/m² -
1788035480 36.11° C 36% 1013.6 hPa 0 mm - 513 W/m² -
1788035175 36.67° C 35% 1014 hPa 0 mm - 549 W/m² -
1788034871 36.11° C 36% 1014.1 hPa 0 mm - 528 W/m² -
1788034567 35.56° C 36% 1013.8 hPa 0 mm - 526 W/m² -
1788034263 36.11° C 35% 1014 hPa 0 mm - 531 W/m² -
1788033962 36.11° C 35% 1014 hPa 0 mm - 559 W/m² -
1788033658 36.11° C 34% 1014.1 hPa 0 mm - 538 W/m² -
1788033356 36.11° C 35% 1013.9 hPa 0 mm - 534 W/m² -
1788033052 36.11° C 35% 1014.2 hPa 0 mm - 672 W/m² -
1788032752 36.11° C 36% 1014.2 hPa 0 mm - 682 W/m² -
1788032446 36.11° C 35% 1014.3 hPa 0 mm - 688 W/m² -
1788032143 36.11° C 36% 1014.6 hPa 0 mm - 696 W/m² -

* Rain latest hour (hover to see other rain measurements)
** Current wind speed in m/s (hover to see current wind gust speed)